This is the latest recevied weather packets stored in our database for station/object K7KAR-2. If no packets are shown the sender has not sent any weather packets the latest 10 day(s).
| Time | Temp. | Humidity | Pressure | Rain* | Wind** | Luminosity | Snow |
|---|---|---|---|---|---|---|---|
| 1788530518 | 15° C | 49% | 1008.6 hPa | 0 mm | - | 149 W/m² | - |
| 1788530216 | 13.89° C | 50% | 1008.7 hPa | 0 mm | - | 84 W/m² | - |
| 1788529912 | 13.33° C | 51% | 1008.4 hPa | 0 mm | - | 120 W/m² | - |
| 1788529608 | 13.33° C | 52% | 1008.3 hPa | 0 mm | - | 75 W/m² | - |
| 1788529307 | 13.33° C | 53% | 1008.3 hPa | 0 mm | - | 58 W/m² | - |
| 1788529002 | 13.89° C | 52% | 1008.3 hPa | 0 mm | - | 79 W/m² | - |
| 1788528698 | 13.89° C | 48% | 1008.1 hPa | 0 mm | - | 70 W/m² | - |
| 1788528397 | 15° C | 47% | 1008.3 hPa | 0 mm | - | 60 W/m² | - |
| 1788528092 | 15° C | 43% | 1008.6 hPa | 0 mm | - | 51 W/m² | - |
| 1788527792 | 15° C | 44% | 1008.3 hPa | 0 mm | - | 44 W/m² | - |
| 1788527488 | 14.44° C | 44% | 1008.3 hPa | 0 mm | - | 36 W/m² | - |
| 1788527187 | 13.89° C | 45% | 1008.3 hPa | 0 mm | - | 30 W/m² | - |
| 1788526881 | 13.89° C | 46% | 1008.1 hPa | 0 mm | - | 24 W/m² | - |
| 1788526578 | 13.89° C | 45% | 1007.8 hPa | 0 mm | - | 19 W/m² | - |
| 1788526273 | 13.89° C | 45% | 1007.9 hPa | 0 mm | - | 13 W/m² | - |
| 1788525968 | 13.89° C | 45% | 1008.1 hPa | 0 mm | - | 9 W/m² | - |
| 1788525663 | 13.89° C | 45% | 1007.7 hPa | 0 mm | - | 6 W/m² | - |
| 1788525358 | 14.44° C | 43% | 1007.9 hPa | 0 mm | - | 4 W/m² | - |
| 1788525053 | 14.44° C | 43% | 1008.2 hPa | 0 mm | - | 2 W/m² | - |
| 1788524748 | 15° C | 43% | 1008.1 hPa | 0 mm | - | 1 W/m² | - |
| 1788524443 | 15° C | 42% | 1007.9 hPa | 0 mm | - | 0 W/m² | - |
| 1788524138 | 14.44° C | 43% | 1008.1 hPa | 0 mm | - | 0 W/m² | - |
| 1788523834 | 15° C | 43% | 1007.8 hPa | 0 mm | - | 0 W/m² | - |
| 1788523530 | 15° C | 42% | 1008.1 hPa | 0 mm | - | 0 W/m² | - |
| 1788523226 | 14.44° C | 43% | 1007.9 hPa | 0 mm | - | 0 W/m² | - |
* Rain latest hour (hover to see other rain measurements)
** Current wind speed in m/s (hover to see current wind gust speed)